Tracking 29892 objects as of 21-Nov-2024
HD Live streaming from Space Station
objects crossing your sky now

STARLINK-31756

Track STARLINK-31756 now!
10-day predictions
STARLINK-31756 is classified as:


NORAD ID: 61517
Int'l Code: 2024-183J
Perigee: 435.4 km
Apogee: 437.3 km
Inclination: 53.2 °
Period: 93.2 minutes
Semi major axis: 6807 km
RCS: Unknown
Launch date: October 15, 2024
Source: United States (US)
Launch site: AIR FORCE EASTERN TEST RANGE (AFETR)
Your satellite tracking list
Your tracking list is empty




NASA's NSSDC Master Catalog

Two Line Element Set (TLE):
1 61517U 24183J   24325.91668981 -.01264981  00000-0 -28435-1 0  9998
2 61517  53.1598 191.3763 0001427  80.5921  74.8209 15.45736719  6051
Source of the keplerian elements: AFSPC